Decorah, IA

12:16 PM CST on December 06, 2019 (GMT -0600)
Decorah Municipal

Weather History for KDEH - October, 2019

Change the Weather History Date:

Friday, October 11, 2019

  Actual Average Record
Temperature  
Mean Temperature 48 °F -  
Max Temperature 62 °F 62 °F 82 °F (2015)
Min Temperature 33 °F 39 °F 17 °F (1987)
Degree Days  
Heating Degree Days 18    
Moisture  
Dew Point 33 °F    
Average Humidity 81    
Maximum Humidity 100    
Minimum Humidity 60    
Precipitation  
Precipitation 0.21 in - - ()
Sea Level Pressure  
Sea Level Pressure 29.87 in    
Wind  
Wind Speed 10 mph ()    
Max Wind Speed 17 mph    
Max Gust Speed 30 mph    
Visibility 8.7 miles    
Events Rain    
Averages and records for this station are not official NWS values.
T = Trace of Precipitation, MM = Missing Value Source: Averaged Metar Reports

Daily Weather History Graph

Daily Weather History Graph

Search for Another Location

Airport or City:

Astronomy

Oct. 11, 2019 Rise Set
Actual Time 7:15 AM CDT 6:30 PM CDT
Civil Twilight 6:47 AM CDT 6:59 PM CDT
Nautical Twilight 6:14 AM CDT 7:32 PM CDT
Astronomical Twilight 5:41 AM CDT 8:05 PM CDT
Moon 6:05 PM CDT (10/11) 4:50 AM CDT (10/11)
Length of Visible Light 12h 12m
Length of Day
11h 15m
Waxing Gibbous, 96% of the Moon is Illuminated
Oct 11
Waxing Gibbous
Oct 13
Full
Oct 21
Last Quarter
Oct 27
New
Nov 4
First Quarter

Hourly Weather History & Observations

Time (CDT) Temp. Windchill Dew Point Humidity Pressure Visibility Wind Dir Wind Speed Gust Speed Precip Events Conditions
12:15 AM 62.6 °F - 62.6 °F 100% 29.72 in 1.2 mi SSE 12.7 mph 20.7 mph N/A Rain Heavy Rain
12:35 AM 62.6 °F - 62.6 °F 100% 29.71 in 4.0 mi South 10.4 mph - N/A   Mostly Cloudy
12:55 AM 62.6 °F - 62.6 °F 100% 29.70 in 2.0 mi South 10.4 mph 17.3 mph 0.19 in   Overcast
1:15 AM 62.6 °F - 62.6 °F 100% 29.72 in 3.0 mi West 17.3 mph 24.2 mph N/A   Overcast
1:35 AM 48.2 °F - 48.2 °F 100% 29.75 in 4.0 mi West 12.7 mph 21.9 mph N/A   Overcast
1:55 AM 44.6 °F 38.8 °F 44.6 °F 100% 29.77 in 3.0 mi West 11.5 mph - 0.01 in   Overcast
2:15 AM 42.8 °F 37.5 °F 42.8 °F 100% 29.77 in 2.0 mi West 9.2 mph 19.6 mph N/A   Overcast
2:35 AM 42.8 °F 39.3 °F 42.8 °F 100% 29.76 in 4.0 mi Variable 5.8 mph - N/A   Overcast
2:55 AM 42.8 °F 38.6 °F 42.8 °F 100% 29.76 in 5.0 mi Variable 6.9 mph 15.0 mph N/A   Overcast
3:15 AM 42.8 °F 40.1 °F 42.8 °F 100% 29.76 in 10.0 mi Variable 4.6 mph 16.1 mph N/A   Overcast
3:35 AM 41.0 °F 34.7 °F 41.0 °F 100% 29.78 in 8.0 mi West 10.4 mph 18.4 mph N/A   Overcast
3:55 AM 41.0 °F 34.3 °F 41.0 °F 100% 29.79 in 10.0 mi West 11.5 mph 19.6 mph N/A   Overcast
4:15 AM 41.0 °F 35.2 °F 39.2 °F 93% 29.80 in 10.0 mi West 9.2 mph 19.6 mph N/A   Overcast
4:35 AM 41.0 °F 35.8 °F 39.2 °F 93% 29.81 in 10.0 mi West 8.1 mph 19.6 mph N/A   Overcast
4:55 AM 41.0 °F 35.2 °F 39.2 °F 93% 29.80 in 10.0 mi West 9.2 mph - N/A   Overcast
5:15 AM 41.0 °F 36.4 °F 41.0 °F 100% 29.81 in 5.0 mi Variable 6.9 mph 15.0 mph N/A   Overcast
5:35 AM 39.2 °F 33.6 °F 39.2 °F 100% 29.82 in 4.0 mi West 8.1 mph 17.3 mph N/A   Overcast
5:55 AM 39.2 °F 30.8 °F 39.2 °F 100% 29.84 in 8.0 mi West 15.0 mph 23.0 mph N/A   Overcast
6:15 AM 39.2 °F 32.5 °F 37.4 °F 93% 29.84 in 9.0 mi West 10.4 mph 19.6 mph N/A   Overcast
6:35 AM 37.4 °F 29.3 °F 37.4 °F 100% 29.86 in 9.0 mi West 12.7 mph 24.2 mph N/A   Overcast
6:55 AM 37.4 °F 32.1 °F 37.4 °F 100% 29.85 in 10.0 mi Variable 6.9 mph 16.1 mph N/A   Overcast
7:15 AM 37.4 °F 30.8 °F 35.6 °F 93% 29.85 in 10.0 mi WSW 9.2 mph 19.6 mph N/A   Mostly Cloudy
7:35 AM 37.4 °F 32.1 °F 35.6 °F 93% 29.86 in 10.0 mi Variable 6.9 mph 15.0 mph N/A   Mostly Cloudy
7:55 AM 37.4 °F 30.3 °F 35.6 °F 93% 29.86 in 10.0 mi West 10.4 mph 21.9 mph N/A   Overcast
8:55 AM 37.4 °F 28.9 °F 33.8 °F 87% 29.88 in 10.0 mi West 13.8 mph 24.2 mph N/A   Scattered Clouds
9:15 AM 37.4 °F 30.3 °F 33.8 °F 87% 29.88 in 10.0 mi West 10.4 mph 20.7 mph N/A   Mostly Cloudy
9:55 AM 33.8 °F 25.8 °F 33.8 °F 100% 29.90 in 1.8 mi WSW 10.4 mph 17.3 mph 0.01 in   Unknown
10:15 AM 35.6 °F 29.9 °F 33.8 °F 93% 29.90 in 10.0 mi Variable 6.9 mph 16.1 mph N/A   Unknown
10:35 AM 35.6 °F 27.5 °F 33.8 °F 93% 29.90 in 9.0 mi West 11.5 mph 18.4 mph N/A   Unknown
10:55 AM 35.6 °F 29.2 °F 32.0 °F 87% 29.90 in 10.0 mi West 8.1 mph 21.9 mph N/A   Unknown
11:15 AM 35.6 °F 29.2 °F 32.0 °F 87% 29.91 in 10.0 mi WSW 8.1 mph 17.3 mph N/A   Unknown
11:35 AM 35.6 °F 28.0 °F 30.2 °F 81% 29.91 in 10.0 mi West 10.4 mph 21.9 mph N/A   Unknown
11:55 AM 37.4 °F 30.8 °F 28.4 °F 70% 29.91 in 10.0 mi West 9.2 mph 20.7 mph N/A   Unknown
12:15 PM 37.4 °F 31.4 °F 30.2 °F 75% 29.91 in 10.0 mi West 8.1 mph 25.3 mph N/A   Unknown
12:35 PM 37.4 °F 30.8 °F 28.4 °F 70% 29.91 in 10.0 mi West 9.2 mph 18.4 mph N/A   Unknown
12:55 PM 37.4 °F 29.8 °F 28.4 °F 70% 29.91 in 10.0 mi WSW 11.5 mph 21.9 mph N/A   Unknown
1:15 PM 37.4 °F 28.5 °F 28.4 °F 70% 29.91 in 10.0 mi WSW 15.0 mph 21.9 mph N/A   Unknown
1:35 PM 37.4 °F 29.8 °F 28.4 °F 70% 29.91 in 10.0 mi WSW 11.5 mph 20.7 mph N/A   Unknown
1:55 PM 37.4 °F 31.4 °F 28.4 °F 70% 29.91 in 10.0 mi Variable 8.1 mph 21.9 mph N/A   Unknown
2:15 PM 37.4 °F 29.8 °F 28.4 °F 70% 29.91 in 10.0 mi WSW 11.5 mph 19.6 mph N/A   Unknown
2:35 PM 37.4 °F 29.8 °F 26.6 °F 65% 29.91 in 10.0 mi West 11.5 mph 20.7 mph N/A   Unknown
2:55 PM 37.4 °F 28.5 °F 26.6 °F 65% 29.90 in 10.0 mi WSW 15.0 mph 27.6 mph N/A   Unknown
3:15 PM 37.4 °F 29.3 °F 26.6 °F 65% 29.91 in 10.0 mi WSW 12.7 mph 24.2 mph N/A   Unknown
3:35 PM 37.4 °F 28.9 °F 26.6 °F 65% 29.91 in 10.0 mi West 13.8 mph 26.5 mph N/A   Unknown
3:55 PM 37.4 °F 29.3 °F 26.6 °F 65% 29.91 in 10.0 mi WSW 12.7 mph 23.0 mph N/A   Overcast
4:15 PM 37.4 °F 28.5 °F 26.6 °F 65% 29.91 in 10.0 mi West 15.0 mph 29.9 mph N/A   Unknown
4:35 PM 37.4 °F 30.3 °F 26.6 °F 65% 29.91 in 10.0 mi WSW 10.4 mph 20.7 mph N/A   Overcast
4:55 PM 37.4 °F 29.8 °F 26.6 °F 65% 29.92 in 10.0 mi WSW 11.5 mph 27.6 mph N/A   Overcast
5:15 PM 37.4 °F 32.1 °F 24.8 °F 60% 29.92 in 10.0 mi Variable 6.9 mph 26.5 mph N/A   Overcast
5:35 PM 37.4 °F 28.9 °F 26.6 °F 65% 29.92 in 10.0 mi WSW 13.8 mph 24.2 mph N/A   Overcast
5:55 PM 37.4 °F 29.8 °F 26.6 °F 65% 29.92 in 10.0 mi WSW 11.5 mph 21.9 mph N/A   Overcast
6:15 PM 37.4 °F 32.1 °F 26.6 °F 65% 29.92 in 10.0 mi Variable 6.9 mph 23.0 mph N/A   Overcast
6:35 PM 37.4 °F 30.3 °F 26.6 °F 65% 29.92 in 10.0 mi WSW 10.4 mph 17.3 mph N/A   Overcast
6:55 PM 37.4 °F 30.3 °F 26.6 °F 65% 29.92 in 10.0 mi WSW 10.4 mph 24.2 mph N/A   Overcast
7:15 PM 37.4 °F 28.5 °F 26.6 °F 65% 29.92 in 10.0 mi WSW 15.0 mph 27.6 mph N/A   Overcast
7:35 PM 37.4 °F 29.3 °F 26.6 °F 65% 29.92 in 10.0 mi WSW 12.7 mph 21.9 mph N/A   Overcast
7:55 PM 37.4 °F 30.3 °F 26.6 °F 65% 29.92 in 10.0 mi SW 10.4 mph 27.6 mph N/A   Overcast
8:15 PM 35.6 °F 26.6 °F 26.6 °F 70% 29.92 in 10.0 mi SW 13.8 mph 24.2 mph N/A   Overcast
8:35 PM 35.6 °F 27.5 °F 26.6 °F 70% 29.92 in 10.0 mi SW 11.5 mph 24.2 mph N/A   Overcast
8:55 PM 35.6 °F 26.6 °F 26.6 °F 70% 29.92 in 10.0 mi SW 13.8 mph 24.2 mph N/A   Overcast
9:15 PM 35.6 °F 28.0 °F 26.6 °F 70% 29.92 in 10.0 mi WSW 10.4 mph 27.6 mph N/A   Overcast
9:35 PM 35.6 °F 29.2 °F 26.6 °F 70% 29.92 in 10.0 mi WSW 8.1 mph 19.6 mph N/A   Overcast
9:55 PM 35.6 °F 27.5 °F 26.6 °F 70% 29.92 in 10.0 mi WSW 11.5 mph 21.9 mph N/A   Overcast
10:15 PM 35.6 °F 27.1 °F 26.6 °F 70% 29.92 in 10.0 mi WSW 12.7 mph - N/A   Overcast
10:35 PM 35.6 °F 28.0 °F 24.8 °F 65% 29.92 in 10.0 mi West 10.4 mph 25.3 mph N/A   Overcast
10:55 PM 35.6 °F 27.1 °F 24.8 °F 65% 29.91 in 10.0 mi WSW 12.7 mph 24.2 mph N/A   Overcast
11:15 PM 35.6 °F 27.1 °F 26.6 °F 70% 29.91 in 10.0 mi WSW 12.7 mph 23.0 mph N/A   Overcast
11:35 PM 35.6 °F 28.0 °F 26.6 °F 70% 29.91 in 10.0 mi SW 10.4 mph 19.6 mph N/A   Overcast
11:55 PM 35.6 °F 28.6 °F 26.6 °F 70% 29.90 in 10.0 mi WSW 9.2 mph 17.3 mph N/A   Overcast